Flag for Norway Weather past 2 weeks in Jan Mayen, Jan Mayen, Norway

Now
37 °F

Chilly.


Feels Like: 33 °F
Forecast: 37 / 41 °F
Wind: 5 mph from North

Location: Jan Mayen

Current Time: Sep 3, 2015 at 4:55:38 AM

Latest Report: Sep 3, 2015 at 4:00 AM


Visibility: N/A

Pressure: 30.08 "Hg

Humidity: 92%

Dew point: 35 °F

Location of Jan MayenLocation

Historic Weather in Jan Mayen — Graph

°F

Jan Mayen temperature yesterday

Maximum temperature yesterday: 41 °F (at 6:00 PM)
Minimum temperature yesterday: 40 °F (at 3:00 PM)
Average temperature yesterday: 41 °F

Past Weeks' High & Low Weather Summary

 TemperatureHumidityPressure
High51 °F (Aug 20, 2:00 PM)97% (Aug 22, 4:00 PM)30.18 "Hg (Aug 22, 4:00 PM)
Low36 °F (Aug 31, 8:00 AM)73% (Aug 28, 3:00 AM)29.55 "Hg (Aug 28, 8:00 AM)
Average44 °F89%29.96 "Hg
* Reported Aug 19 2:00 AM — Sep 3 2:00 AM, Jan Mayen, Weather by CustomWeather, © 2015

Note: Actual official high and low records may vary slightly from our data, if they occured in-between our weather recording intervals... More about our weather records

Advertising

Jan Mayen weather history for previous 24 hours

 ConditionsComfort  
Time TempWeatherWind HumidityBarometerVisibility
2:00 AM
Thu, Sep 3
39 °FLight rain. Overcast.6 mph93%30.07 "Hg6 mi
1:00 AM40 °FQuite cool.7 mph93%30.07 "HgN/A
12:00 AM40 °FQuite cool.3 mph93%30.08 "HgN/A
10:00 PM
Wed, Sep 2
40 °FQuite cool.1 mph90%30.10 "HgN/A
9:00 PM40 °FQuite cool.1 mph89%30.12 "HgN/A
8:00 PM40 °FDrizzle. Overcast.2 mph89%30.12 "Hg9 mi
7:00 PM41 °FQuite cool.2 mph80%30.14 "HgN/A
6:00 PM41 °FQuite cool.3 mph76%30.15 "HgN/A
5:00 PM41 °FOvercast.2 mph75%30.16 "Hg12 mi
4:00 PM41 °FQuite cool.2 mph80%30.17 "HgN/A
3:00 PM40 °FChilly.3 mph82%30.18 "HgN/A
2:00 PM40 °FDrizzle. Overcast.2 mph85%30.18 "Hg9 mi
1:00 PM40 °FQuite cool.2 mph84%30.17 "HgN/A
12:00 PM40 °FQuite cool.3 mph86%30.18 "HgN/A
11:00 AM40 °FQuite cool.2 mph86%30.18 "HgN/A
10:00 AM40 °FQuite cool.5 mph76%30.17 "HgN/A
9:00 AM40 °FQuite cool.5 mph83%30.16 "HgN/A
8:00 AM40 °FOvercast.5 mph87%30.16 "Hg9 mi
7:00 AM40 °FQuite cool.8 mph89%30.16 "HgN/A
6:00 AM41 °FQuite cool.7 mph89%30.15 "HgN/A
4:00 AM41 °FQuite cool.3 mph86%30.14 "HgN/A
Weather by CustomWeather, © 2015

See weather overviewHow to use our weather pages